RPA4505 KDCA-KRDU

Flight info

Callsign RPA4505
Flight time 0h 45m
Altitude 32000
Route JDUBB4 MELTN ALDAN4
Aircraft E75L/M-SDE3GILORVW/S

Departure

Time 2026-05-04 00:45
Airport Ronald Reagan Washington National Airport (KDCA)

Arrival

Time 2026-05-04 01:30
Airport Raleigh-Durham International Airport (KRDU)
Time Latitude Longitude Altitude Speed Heading
2026-05-04 00:16 38.85370 -77.04109 22 ft 0 kts 327°
2026-05-04 00:23 38.85367 -77.04106 22 ft 2 kts 327°
2026-05-04 00:23 38.85351 -77.04093 22 ft 3 kts 327°
2026-05-04 00:23 38.85335 -77.04081 22 ft 3 kts 343°
2026-05-04 00:23 38.85322 -77.04084 22 ft 3 kts 63°
2026-05-04 00:24 38.85320 -77.04091 22 ft 1 kts 72°
2026-05-04 00:24 38.85324 -77.04074 22 ft 1 kts 72°
2026-05-04 00:24 38.85325 -77.04072 22 ft 0 kts 72°
2026-05-04 00:27 38.85326 -77.04066 23 ft 2 kts 72°
2026-05-04 00:27 38.85335 -77.04031 22 ft 6 kts 73°
2026-05-04 00:27 38.85308 -77.03993 22 ft 8 kts 174°
2026-05-04 00:27 38.85232 -77.03984 22 ft 14 kts 175°
2026-05-04 00:28 38.85115 -77.03973 23 ft 20 kts 175°
2026-05-04 00:28 38.84977 -77.03959 22 ft 20 kts 176°
2026-05-04 00:28 38.84877 -77.03937 24 ft 4 kts 112°
2026-05-04 00:28 38.84864 -77.03896 23 ft 6 kts 141°
2026-05-04 00:29 38.84808 -77.03881 22 ft 12 kts 173°
2026-05-04 00:29 38.84705 -77.03871 22 ft 18 kts 176°
2026-05-04 00:29 38.84554 -77.03856 24 ft 24 kts 175°
2026-05-04 00:29 38.84390 -77.03840 22 ft 24 kts 176°
2026-05-04 00:30 38.84261 -77.03826 22 ft 8 kts 176°
2026-05-04 00:30 38.84254 -77.03826 22 ft 1 kts 170°
2026-05-04 00:30 38.84235 -77.03806 22 ft 7 kts 136°
2026-05-04 00:30 38.84200 -77.03706 22 ft 16 kts 74°
2026-05-04 00:31 38.84234 -77.03678 21 ft 4 kts 355°
2026-05-04 00:31 38.84397 -77.03699 21 ft 57 kts 355°
2026-05-04 00:31 38.85013 -77.03767 21 ft 119 kts 355°
2026-05-04 00:31 38.86027 -77.04018 27 ft 166 kts 307°
2026-05-04 00:32 38.86350 -77.04343 19 ft 6 kts 268°
2026-05-04 00:32 38.85367 -77.04107 18 ft 3 kts 327°
2026-05-04 00:32 38.85370 -77.04109 25 ft 0 kts 327°
2026-05-04 00:37 38.85369 -77.04109 22 ft 1 kts 327°
2026-05-04 00:37 38.85357 -77.04099 24 ft 3 kts 327°
2026-05-04 00:37 38.85341 -77.04085 22 ft 3 kts 328°
2026-05-04 00:38 38.85326 -77.04080 25 ft 3 kts 33°
2026-05-04 00:38 38.85320 -77.04092 22 ft 1 kts 72°
2026-05-04 00:38 38.85323 -77.04080 22 ft 2 kts 72°
2026-05-04 00:38 38.85325 -77.04072 24 ft 0 kts 72°
2026-05-04 00:40 38.85327 -77.04062 22 ft 0 kts 81°
2026-05-04 00:40 38.85328 -77.04050 23 ft 5 kts 80°
2026-05-04 00:41 38.85332 -77.04012 22 ft 2 kts 116°
2026-05-04 00:41 38.85263 -77.03988 24 ft 17 kts 174°
2026-05-04 00:41 38.85145 -77.03976 22 ft 18 kts 175°
2026-05-04 00:41 38.85015 -77.03964 22 ft 20 kts 176°
2026-05-04 00:42 38.84902 -77.03952 22 ft 10 kts 175°
2026-05-04 00:42 38.84870 -77.03910 22 ft 7 kts 118°
2026-05-04 00:42 38.84816 -77.03883 22 ft 12 kts 175°
2026-05-04 00:42 38.84712 -77.03873 22 ft 18 kts 176°
2026-05-04 00:43 38.84561 -77.03859 22 ft 25 kts 176°
2026-05-04 00:43 38.84377 -77.03840 22 ft 27 kts 175°
2026-05-04 00:43 38.84230 -77.03819 24 ft 17 kts 163°
2026-05-04 00:43 38.84192 -77.03767 22 ft 10 kts 122°
2026-05-04 00:44 38.84195 -77.03682 24 ft 10 kts 19°
2026-05-04 00:44 38.84222 -77.03683 22 ft 7 kts 354°
2026-05-04 00:44 38.84561 -77.03718 22 ft 95 kts 356°
2026-05-04 00:44 38.85503 -77.03799 171 ft 164 kts 354°
2026-05-04 00:45 38.86697 -77.03926 1114 ft 180 kts 352°
2026-05-04 00:45 38.87941 -77.04447 2043 ft 202 kts 325°
2026-05-04 00:45 38.88964 -77.05704 3184 ft 211 kts 310°
2026-05-04 00:45 38.89980 -77.07226 4429 ft 233 kts 308°
2026-05-04 00:46 38.90968 -77.09031 4840 ft 256 kts 301°
2026-05-04 00:46 38.92113 -77.10877 3498 ft 291 kts 320°
2026-05-04 00:46 38.93672 -77.12146 4503 ft 240 kts 327°
2026-05-04 00:46 38.95090 -77.13299 5617 ft 248 kts 323°
2026-05-04 00:47 38.96400 -77.14831 5229 ft 266 kts 302°
2026-05-04 00:47 38.96951 -77.17067 4932 ft 257 kts 278°
2026-05-04 00:47 38.97245 -77.19271 4933 ft 248 kts 282°
2026-05-04 00:47 38.97620 -77.21434 5061 ft 248 kts 282°
2026-05-04 00:48 38.98002 -77.23621 6002 ft 253 kts 281°
2026-05-04 00:48 38.98019 -77.25874 7057 ft 256 kts 256°
2026-05-04 00:48 38.97153 -77.27875 8062 ft 263 kts 231°
2026-05-04 00:48 38.95682 -77.29327 8918 ft 273 kts 211°
2026-05-04 00:49 38.93959 -77.30406 9776 ft 279 kts 210°
2026-05-04 00:49 38.92166 -77.31478 10431 ft 293 kts 208°
2026-05-04 00:49 38.90233 -77.32537 10950 ft 310 kts 207°
2026-05-04 00:49 38.88206 -77.33587 11706 ft 317 kts 206°
2026-05-04 00:50 38.86148 -77.34655 12602 ft 321 kts 207°
2026-05-04 00:50 38.84077 -77.35760 13526 ft 324 kts 208°
2026-05-04 00:50 38.81990 -77.36877 14475 ft 326 kts 208°
2026-05-04 00:50 38.79881 -77.37993 15395 ft 330 kts 208°
2026-05-04 00:51 38.77746 -77.39104 16287 ft 333 kts 208°
2026-05-04 00:51 38.75577 -77.40212 17125 ft 337 kts 208°
2026-05-04 00:51 38.73383 -77.41324 17955 ft 341 kts 208°
2026-05-04 00:51 38.71161 -77.42434 18767 ft 344 kts 208°
2026-05-04 00:52 38.68912 -77.43535 19520 ft 349 kts 208°
2026-05-04 00:52 38.66627 -77.44629 20237 ft 353 kts 208°
2026-05-04 00:52 38.64307 -77.45726 20950 ft 357 kts 208°
2026-05-04 00:52 38.61965 -77.46822 21602 ft 361 kts 208°
2026-05-04 00:53 38.59596 -77.47916 22253 ft 364 kts 208°
2026-05-04 00:53 38.57196 -77.49009 22892 ft 368 kts 208°
2026-05-04 00:53 38.54770 -77.50102 23510 ft 371 kts 208°
2026-05-04 00:53 38.52320 -77.51193 24146 ft 375 kts 208°
2026-05-04 00:54 38.49841 -77.52285 24776 ft 378 kts 208°
2026-05-04 00:54 38.47349 -77.53369 25420 ft 380 kts 208°
2026-05-04 00:54 38.44837 -77.54450 25993 ft 383 kts 208°
2026-05-04 00:54 38.42286 -77.55538 26144 ft 386 kts 208°
2026-05-04 00:55 38.39785 -77.56640 25665 ft 370 kts 213°
2026-05-04 00:55 38.37659 -77.58102 26242 ft 335 kts 224°
2026-05-04 00:55 38.35767 -77.59827 26822 ft 335 kts 226°
2026-05-04 00:55 38.33864 -77.61593 27340 ft 340 kts 225°
2026-05-04 00:56 38.31908 -77.63332 27760 ft 347 kts 224°
2026-05-04 00:56 38.29893 -77.65075 28151 ft 354 kts 224°
2026-05-04 00:56 38.27834 -77.66852 28446 ft 362 kts 224°
2026-05-04 00:56 38.25725 -77.68674 28763 ft 369 kts 224°
2026-05-04 00:57 38.23585 -77.70518 29154 ft 374 kts 224°
2026-05-04 00:57 38.21420 -77.72381 29566 ft 377 kts 224°
2026-05-04 00:57 38.19238 -77.74254 30052 ft 379 kts 224°
2026-05-04 00:57 38.17047 -77.76132 30466 ft 382 kts 224°
2026-05-04 00:58 38.14841 -77.78026 30885 ft 383 kts 224°
2026-05-04 00:58 38.12631 -77.79916 31289 ft 384 kts 224°
2026-05-04 00:58 38.10408 -77.81818 31683 ft 385 kts 224°
2026-05-04 00:58 38.08180 -77.83724 32030 ft 387 kts 223°
2026-05-04 00:59 38.05935 -77.85651 32060 ft 394 kts 224°
2026-05-04 00:59 38.01298 -77.89624 32074 ft 409 kts 223°
2026-05-04 01:00 37.96551 -77.93667 32059 ft 412 kts 223°
2026-05-04 01:00 37.91800 -77.97716 32051 ft 412 kts 223°
2026-05-04 01:01 37.87036 -78.01758 32050 ft 412 kts 223°
2026-05-04 01:01 37.82275 -78.05800 32057 ft 412 kts 223°
2026-05-04 01:02 37.77515 -78.09837 32051 ft 412 kts 223°
2026-05-04 01:02 37.72750 -78.13874 32053 ft 413 kts 223°
2026-05-04 01:03 37.68780 -78.17234 32053 ft 414 kts 223°
2026-05-04 01:03 37.64002 -78.21266 32055 ft 413 kts 223°
2026-05-04 01:04 37.59231 -78.25282 32053 ft 413 kts 223°
2026-05-04 01:04 37.53678 -78.29958 32055 ft 413 kts 222°
2026-05-04 01:05 37.49673 -78.33323 32053 ft 413 kts 222°
2026-05-04 01:05 37.44888 -78.37336 32055 ft 413 kts 222°
2026-05-04 01:06 37.40092 -78.41353 32054 ft 414 kts 222°
2026-05-04 01:06 37.37716 -78.43330 32028 ft 400 kts 222°
2026-05-04 01:06 37.35465 -78.45194 32000 ft 377 kts 223°
2026-05-04 01:06 37.33336 -78.46960 32052 ft 357 kts 223°
2026-05-04 01:07 37.31291 -78.48672 31795 ft 358 kts 223°
2026-05-04 01:07 37.29181 -78.50456 30694 ft 371 kts 223°
2026-05-04 01:07 37.27012 -78.52283 29507 ft 380 kts 223°
2026-05-04 01:07 37.24820 -78.54107 29120 ft 369 kts 222°
2026-05-04 01:08 37.22710 -78.55846 28842 ft 361 kts 223°
2026-05-04 01:08 37.20593 -78.57614 28551 ft 371 kts 222°
2026-05-04 01:08 37.18424 -78.59428 27925 ft 379 kts 222°
2026-05-04 01:08 37.16229 -78.61249 27440 ft 376 kts 222°
2026-05-04 01:09 37.14052 -78.63054 26941 ft 374 kts 222°
2026-05-04 01:09 37.11890 -78.64844 26456 ft 372 kts 222°
2026-05-04 01:09 37.11021 -78.65564 26265 ft 371 kts 221°
2026-05-04 01:09 37.09375 -78.66928 25892 ft 369 kts 221°
2026-05-04 01:10 37.07245 -78.68690 25431 ft 366 kts 221°
2026-05-04 01:10 37.05153 -78.70483 24953 ft 363 kts 223°
2026-05-04 01:10 37.03067 -78.72265 24483 ft 363 kts 222°
2026-05-04 01:10 37.00973 -78.74016 24010 ft 360 kts 221°
2026-05-04 01:11 36.98890 -78.75744 23529 ft 358 kts 221°
2026-05-04 01:11 36.96792 -78.77475 23067 ft 356 kts 221°
2026-05-04 01:11 36.94731 -78.79176 22603 ft 354 kts 221°
2026-05-04 01:11 36.92677 -78.80869 22143 ft 353 kts 220°
2026-05-04 01:12 36.90631 -78.82548 21681 ft 351 kts 220°
2026-05-04 01:12 36.88599 -78.84223 21229 ft 349 kts 220°
2026-05-04 01:12 36.86578 -78.85887 20768 ft 347 kts 220°
2026-05-04 01:12 36.84593 -78.87517 20327 ft 345 kts 220°
2026-05-04 01:13 36.82595 -78.89161 19895 ft 343 kts 220°
2026-05-04 01:13 36.80604 -78.90796 19442 ft 342 kts 220°
2026-05-04 01:13 36.78595 -78.92443 18993 ft 340 kts 220°
2026-05-04 01:13 36.76643 -78.94042 18549 ft 339 kts 220°
2026-05-04 01:14 36.74656 -78.95671 18105 ft 337 kts 220°
2026-05-04 01:14 36.72724 -78.97254 17639 ft 336 kts 219°
2026-05-04 01:14 36.70772 -78.98854 17149 ft 334 kts 219°
2026-05-04 01:14 36.68778 -79.00327 16737 ft 338 kts 209°
2026-05-04 01:15 36.66439 -79.00918 16320 ft 352 kts 187°
2026-05-04 01:15 36.63975 -79.00532 15869 ft 361 kts 174°
2026-05-04 01:15 36.61529 -78.99784 15469 ft 360 kts 171°
2026-05-04 01:15 36.59109 -78.99013 15021 ft 359 kts 172°
2026-05-04 01:16 36.56674 -78.98264 14603 ft 351 kts 172°
2026-05-04 01:16 36.54322 -78.97566 14173 ft 343 kts 172°
2026-05-04 01:16 36.52022 -78.96894 13763 ft 336 kts 172°
2026-05-04 01:16 36.49773 -78.96258 13384 ft 328 kts 173°
2026-05-04 01:17 36.47566 -78.95644 12987 ft 322 kts 173°
2026-05-04 01:17 36.45396 -78.95042 12596 ft 317 kts 173°
2026-05-04 01:17 36.43259 -78.94457 12209 ft 313 kts 173°
2026-05-04 01:17 36.41170 -78.93886 11813 ft 311 kts 172°
2026-05-04 01:18 36.39172 -78.92822 11418 ft 319 kts 147°
2026-05-04 01:18 36.37529 -78.90966 11056 ft 321 kts 135°
2026-05-04 01:18 36.36027 -78.88914 10586 ft 321 kts 134°
2026-05-04 01:18 36.34528 -78.86877 10147 ft 317 kts 135°
2026-05-04 01:19 36.33020 -78.84900 9736 ft 314 kts 135°
2026-05-04 01:19 36.31514 -78.82970 9326 ft 310 kts 135°
2026-05-04 01:19 36.30021 -78.81068 8973 ft 305 kts 135°
2026-05-04 01:19 36.28573 -78.79241 8923 ft 288 kts 136°
2026-05-04 01:20 36.27167 -78.77489 8596 ft 285 kts 136°
2026-05-04 01:20 36.25777 -78.75728 7836 ft 286 kts 135°
2026-05-04 01:20 36.24433 -78.74014 7420 ft 266 kts 135°
2026-05-04 01:20 36.23195 -78.72442 7076 ft 245 kts 136°
2026-05-04 01:21 36.22049 -78.70986 6754 ft 228 kts 136°
2026-05-04 01:21 36.20978 -78.69627 6485 ft 214 kts 136°
2026-05-04 01:21 36.19950 -78.68329 6300 ft 209 kts 136°
2026-05-04 01:21 36.18973 -78.67092 6380 ft 196 kts 136°
2026-05-04 01:22 36.17920 -78.65873 5867 ft 217 kts 142°
2026-05-04 01:22 36.16693 -78.64695 5296 ft 224 kts 144°
2026-05-04 01:22 36.15474 -78.63545 4988 ft 216 kts 144°
2026-05-04 01:22 36.14323 -78.62423 4985 ft 214 kts 143°
2026-05-04 01:23 36.13135 -78.61254 5075 ft 222 kts 143°
2026-05-04 01:23 36.11922 -78.60053 4991 ft 222 kts 142°
2026-05-04 01:23 36.10590 -78.59123 4976 ft 220 kts 170°
2026-05-04 01:23 36.09096 -78.59213 5031 ft 214 kts 196°
2026-05-04 01:24 36.07649 -78.59719 5013 ft 217 kts 199°
2026-05-04 01:24 36.06209 -78.60247 5006 ft 216 kts 199°
2026-05-04 01:24 36.04754 -78.60734 5005 ft 217 kts 197°
2026-05-04 01:24 36.03283 -78.61218 4766 ft 222 kts 199°
2026-05-04 01:25 36.01812 -78.61744 4325 ft 214 kts 198°
2026-05-04 01:25 36.00464 -78.62320 3896 ft 198 kts 214°
2026-05-04 01:25 35.99517 -78.63483 3538 ft 185 kts 233°
2026-05-04 01:25 35.98662 -78.64632 3356 ft 182 kts 225°
2026-05-04 01:26 35.97726 -78.65707 3140 ft 184 kts 225°
2026-05-04 01:26 35.96833 -78.66835 2909 ft 183 kts 227°
2026-05-04 01:26 35.95948 -78.67956 2679 ft 182 kts 226°
2026-05-04 01:26 35.95049 -78.69061 2424 ft 182 kts 225°
2026-05-04 01:27 35.94209 -78.70106 2184 ft 161 kts 225°
2026-05-04 01:27 35.93457 -78.71048 1978 ft 148 kts 225°
2026-05-04 01:27 35.92742 -78.71934 1790 ft 145 kts 224°
2026-05-04 01:27 35.92032 -78.72814 1608 ft 145 kts 224°
2026-05-04 01:28 35.91323 -78.73698 1414 ft 145 kts 224°
2026-05-04 01:28 35.90608 -78.74580 1217 ft 145 kts 224°
2026-05-04 01:28 35.89897 -78.75466 1023 ft 146 kts 224°
2026-05-04 01:28 35.89186 -78.76353 828 ft 145 kts 224°
2026-05-04 01:29 35.88491 -78.77233 650 ft 140 kts 225°
2026-05-04 01:29 35.87821 -78.78061 443 ft 132 kts 224°
2026-05-04 01:29 35.87251 -78.78761 426 ft 97 kts 225°
2026-05-04 01:29 35.86871 -78.79229 424 ft 55 kts 226°
2026-05-04 01:30 35.86784 -78.79450 436 ft 12 kts 279°
2026-05-04 01:30 35.86788 -78.79498 427 ft 0 kts 272°
2026-05-04 01:31 35.86789 -78.79504 432 ft 3 kts 273°
2026-05-04 01:31 35.86814 -78.79567 433 ft 14 kts 315°
2026-05-04 01:31 35.86901 -78.79672 427 ft 22 kts 315°
2026-05-04 01:32 35.87021 -78.79821 412 ft 25 kts 315°
2026-05-04 01:32 35.87127 -78.79944 408 ft 18 kts 323°
2026-05-04 01:32 35.87199 -78.79998 413 ft 13 kts 331°
2026-05-04 01:32 35.87299 -78.80058 424 ft 12 kts 353°
2026-05-04 01:33 35.87354 -78.80011 419 ft 12 kts 43°
2026-05-04 01:33 35.87426 -78.79923 422 ft 16 kts 45°
2026-05-04 01:33 35.87512 -78.79821 424 ft 19 kts 46°
2026-05-04 01:33 35.87612 -78.79698 418 ft 21 kts 45°
2026-05-04 01:34 35.87711 -78.79575 422 ft 20 kts 45°
2026-05-04 01:34 35.87815 -78.79446 424 ft 22 kts 45°
2026-05-04 01:34 35.87923 -78.79314 425 ft 22 kts 45°
2026-05-04 01:34 35.88016 -78.79198 424 ft 15 kts 45°
2026-05-04 01:35 35.88065 -78.79121 423 ft 10 kts 85°
2026-05-04 01:35 35.88019 -78.79042 422 ft 14 kts 136°
2026-05-04 01:35 35.87950 -78.78979 424 ft 9 kts 184°
2026-05-04 01:35 35.87904 -78.79013 420 ft 0 kts 223°
2026-05-04 01:36 35.87882 -78.79042 411 ft 8 kts 242°
2026-05-04 01:36 35.87888 -78.79079 411 ft 3 kts 316°
2026-05-04 01:36 35.87901 -78.79096 412 ft 3 kts 315°
2026-05-04 01:37 35.87903 -78.79098 420 ft 0 kts 315°